Back to catalog

STARLINK-34047

AliveCommunicationsVLEO
NORAD 63821·PAYLOAD·🇺🇸 United States

Launched May 4, 2025 from Cape Canaveral Space Force Station

Loading…

Next Passes (next 24 hours)

TLE

FreshSource: CelesTrak SupGP

Epoch: Sep 14, 2026, 14:25 UTC

1 63821C 25092T   26257.60118056  .00010149  00000+0  36770-3 0  2574
2 63821  43.0030 185.8058 0001559 262.2060 133.7013 15.27564453    16

Track STARLINK-34047 in real time with AllMySat

Download on the App Store